Location: Asheville, NC
(35.6000°N, 82.5500°W)
Time: 08:57:05
(UTC-04:00)

Iridium 28 - Pass Details

Date: 03 January 2018
Orbit: 771 x 774 km, 86.4° (Epoch: 25 April)

Event Time Altitude Azimuth Distance (km) Brightness Sun altitude
Rises 19:49:13 0° 341° (NNW) 3,249 8.9 -27.6°
Reaches altitude 10° 19:52:04 10° 325° (NW) 2,318 8.3 -28.2°
Maximum altitude 19:55:51 21° 278° (W) 1,680 7.9 -29.0°
Drops below altitude 10° 19:59:39 10° 231° (SW) 2,308 8.7 -29.7°
Sets 20:02:29 0° 215° (SW) 3,231 9.3 -30.3°
